Meteo pe oră la Dahnovici

Astăzi, 11 Aprilie, Duminică

Timp Temperatura Precipitaţii Vânt Presiune Umiditate
00:00 +4°C° 0 mm 2 m/s 752 mmHg 61%
01:00 +4°C° 0 mm 2 m/s 752 mmHg 63%
02:00 +3°C° 0 mm 2 m/s 752 mmHg 65%
03:00 +4°C° 0 mm 1 m/s 752 mmHg 65%
04:00 +4°C° 0 mm 1 m/s 752 mmHg 65%
05:00 +4°C° 0 mm 1 m/s 753 mmHg 65%
06:00 +5°C° 0 mm 1 m/s 753 mmHg 60%
07:00 +7°C° 0 mm 1 m/s 753 mmHg 55%
08:00 +8°C° 0 mm 1 m/s 754 mmHg 50%
09:00 +9°C° 0 mm 2 m/s 754 mmHg 44%
10:00 +10°C° 0 mm 2 m/s 754 mmHg 38%
11:00 +12°C° 0 mm 2 m/s 754 mmHg 32%
12:00 +13°C° 0 mm 2 m/s 753 mmHg 31%
13:00 +14°C° 0 mm 2 m/s 753 mmHg 30%
14:00 +14°C° 0 mm 2 m/s 752 mmHg 29%
15:00 +14°C° 0 mm 2 m/s 752 mmHg 30%
16:00 +14°C° 0 mm 2 m/s 752 mmHg 31%
17:00 +14°C° 0 mm 2 m/s 752 mmHg 31%
18:00 +13°C° 0 mm 2 m/s 752 mmHg 36%
19:00 +12°C° 0 mm 1 m/s 752 mmHg 40%
20:00 +10°C° 0 mm 1 m/s 752 mmHg 44%
21:00 +10°C° 0 mm 1 m/s 752 mmHg 46%
22:00 +8°C° 0 mm 0 m/s 752 mmHg 47%
23:00 +8°C° 0 mm 0 m/s 752 mmHg 48%

Mâine, 12 Aprilie, Luni

Timp Temperatura Precipitaţii Vânt Presiune Umiditate
00:00 +7°C° 0 mm 0 m/s 752 mmHg 49%
01:00 +7°C° 0 mm 0 m/s 751 mmHg 50%
02:00 +7°C° 0 mm 0 m/s 751 mmHg 51%
03:00 +6°C° 0 mm 0 m/s 751 mmHg 52%
04:00 +6°C° 0 mm 0 m/s 751 mmHg 53%
05:00 +7°C° 0 mm 1 m/s 750 mmHg 55%
06:00 +8°C° 0 mm 1 m/s 750 mmHg 52%
07:00 +10°C° 0 mm 1 m/s 750 mmHg 49%
08:00 +11°C° 0 mm 1 m/s 750 mmHg 47%
09:00 +12°C° 0 mm 1 m/s 750 mmHg 44%
10:00 +14°C° 0 mm 1 m/s 750 mmHg 41%
11:00 +15°C° 0 mm 1 m/s 750 mmHg 38%
12:00 +16°C° 0 mm 1 m/s 749 mmHg 36%
13:00 +18°C° 0 mm 1 m/s 749 mmHg 35%
14:00 +18°C° 0 mm 1 m/s 748 mmHg 34%
15:00 +18°C° 0 mm 1 m/s 748 mmHg 34%
16:00 +18°C° 0 mm 1 m/s 748 mmHg 34%
17:00 +18°C° 0 mm 1 m/s 747 mmHg 34%
18:00 +16°C° 0 mm 1 m/s 748 mmHg 39%
19:00 +14°C° 0 mm 1 m/s 748 mmHg 43%
20:00 +13°C° 0 mm 1 m/s 748 mmHg 47%
21:00 +12°C° 0 mm 1 m/s 748 mmHg 50%
22:00 +12°C° 0 mm 1 m/s 748 mmHg 53%
23:00 +11°C° 0 mm 1 m/s 747 mmHg 56%

Poimâine, 13 Aprilie, Marţi

Timp Temperatura Precipitaţii Vânt Presiune Umiditate
00:00 +10°C° 0 mm 1 m/s 747 mmHg 58%
01:00 +9°C° 0 mm 0 m/s 747 mmHg 59%
02:00 +8°C° 0 mm 0 m/s 747 mmHg 61%
03:00 +9°C° 0 mm 1 m/s 747 mmHg 63%
04:00 +9°C° 0 mm 1 m/s 747 mmHg 64%
05:00 +8°C° 0 mm 1 m/s 747 mmHg 66%
06:00 +10°C° 0 mm 1 m/s 747 mmHg 62%
07:00 +11°C° 0 mm 1 m/s 747 mmHg 58%
08:00 +12°C° 0 mm 2 m/s 747 mmHg 55%
09:00 +14°C° 0 mm 2 m/s 747 mmHg 50%
10:00 +15°C° 0 mm 2 m/s 747 mmHg 46%
11:00 +17°C° 0 mm 3 m/s 747 mmHg 41%
12:00 +17°C° 0 mm 3 m/s 746 mmHg 39%
13:00 +18°C° 0 mm 3 m/s 746 mmHg 37%
14:00 +19°C° 0 mm 3 m/s 746 mmHg 35%
15:00 +18°C° 0 mm 4 m/s 746 mmHg 38%
16:00 +18°C° 0 mm 4 m/s 745 mmHg 41%
17:00 +17°C° 0 mm 4 m/s 745 mmHg 44%
18:00 +14°C° 0 mm 4 m/s 745 mmHg 52%
19:00 +12°C° 0 mm 3 m/s 745 mmHg 60%
20:00 +11°C° 0 mm 3 m/s 745 mmHg 68%
21:00 +10°C° 0 mm 3 m/s 745 mmHg 69%
22:00 +10°C° 0 mm 3 m/s 745 mmHg 69%
23:00 +9°C° 0 mm 3 m/s 745 mmHg 70%

14 Aprilie, Miercuri

Timp Temperatura Precipitaţii Vânt Presiune Umiditate
00:00 +9°C° 0 mm 3 m/s 745 mmHg 69%
01:00 +9°C° 0 mm 3 m/s 744 mmHg 69%
02:00 +7°C° 0 mm 4 m/s 744 mmHg 69%
03:00 +7°C° 0 mm 4 m/s 744 mmHg 72%
04:00 +6°C° 0 mm 4 m/s 744 mmHg 75%
05:00 +6°C° 0 mm 4 m/s 744 mmHg 78%
06:00 +7°C° 0.1 mm 5 m/s 744 mmHg 79%
07:00 +7°C° 0.1 mm 5 m/s 743 mmHg 81%
08:00 +7°C° 0.1 mm 6 m/s 743 mmHg 82%
09:00 +8°C° 0.1 mm 6 m/s 743 mmHg 78%
10:00 +9°C° 0.1 mm 7 m/s 743 mmHg 74%
11:00 +10°C° 0.1 mm 7 m/s 743 mmHg 70%
12:00 +9°C° 0.6 mm 7 m/s 742 mmHg 76%
13:00 +8°C° 0.6 mm 7 m/s 742 mmHg 81%
14:00 +6°C° 0.6 mm 7 m/s 742 mmHg 87%
15:00 +8°C° 0 mm 7 m/s 742 mmHg 87%
16:00 +8°C° 0 mm 6 m/s 741 mmHg 88%
17:00 +8°C° 0 mm 6 m/s 741 mmHg 89%
18:00 +8°C° 0 mm 6 m/s 741 mmHg 89%
19:00 +8°C° 0 mm 6 m/s 741 mmHg 89%
20:00 +7°C° 0 mm 6 m/s 741 mmHg 89%
21:00 +7°C° 0 mm 5 m/s 741 mmHg 91%
22:00 +7°C° 0 mm 4 m/s 741 mmHg 93%
23:00 +8°C° 0 mm 3 m/s 741 mmHg 94%

15 Aprilie, Joi

Timp Temperatura Precipitaţii Vânt Presiune Umiditate
00:00 +8°C° 1.3 mm 3 m/s 741 mmHg 95%
01:00 +8°C° 1.3 mm 3 m/s 741 mmHg 96%
02:00 +8°C° 1.3 mm 3 m/s 740 mmHg 97%
03:00 +8°C° 0.4 mm 3 m/s 740 mmHg 97%
04:00 +8°C° 0.4 mm 3 m/s 740 mmHg 97%
05:00 +8°C° 0.4 mm 3 m/s 740 mmHg 97%
06:00 +8°C° 0.2 mm 3 m/s 740 mmHg 96%
07:00 +8°C° 0.2 mm 3 m/s 740 mmHg 95%
08:00 +8°C° 0.2 mm 3 m/s 741 mmHg 94%
09:00 +6°C° 0.6 mm 4 m/s 741 mmHg 94%
10:00 +5°C° 0.6 mm 5 m/s 741 mmHg 94%
11:00 +5°C° 0.6 mm 5 m/s 741 mmHg 94%
12:00 +3°C° 1.5 mm 6 m/s 741 mmHg 94%
13:00 +2°C° 1.5 mm 6 m/s 741 mmHg 94%
14:00 +2°C° 1.5 mm 7 m/s 741 mmHg 94%
15:00 0°C° 1.5 mm 7 m/s 742 mmHg 94%
16:00 0°C° 1.5 mm 7 m/s 742 mmHg 95%
17:00 0°C° 1.5 mm 8 m/s 742 mmHg 95%
18:00 0°C° 1 mm 7 m/s 742 mmHg 95%
19:00 -1°C° 1 mm 7 m/s 742 mmHg 95%
20:00 -1°C° 1 mm 7 m/s 741 mmHg 95%
21:00 -1°C° 1.8 mm 7 m/s 741 mmHg 96%
22:00 -1°C° 1.8 mm 7 m/s 741 mmHg 96%
23:00 -1°C° 1.8 mm 7 m/s 741 mmHg 96%

16 Aprilie, Vineri

Timp Temperatura Precipitaţii Vânt Presiune Umiditate
00:00 -1°C° 1.9 mm 7 m/s 740 mmHg 97%
01:00 -1°C° 1.9 mm 6 m/s 740 mmHg 97%
02:00 +1°C° 1.9 mm 6 m/s 740 mmHg 97%
03:00 +1°C° 0.7 mm 6 m/s 740 mmHg 97%
04:00 +1°C° 0.7 mm 5 m/s 739 mmHg 97%
05:00 +1°C° 0.7 mm 4 m/s 739 mmHg 97%
06:00 +2°C° 0 mm 5 m/s 740 mmHg 96%
07:00 +3°C° 0 mm 5 m/s 740 mmHg 95%
08:00 +5°C° 0 mm 5 m/s 740 mmHg 94%
09:00 +5°C° 0.1 mm 5 m/s 741 mmHg 91%
10:00 +6°C° 0.1 mm 5 m/s 741 mmHg 89%
11:00 +6°C° 0.1 mm 5 m/s 742 mmHg 86%
12:00 +5°C° 0.4 mm 7 m/s 742 mmHg 88%
13:00 +4°C° 0.4 mm 8 m/s 743 mmHg 90%
14:00 +3°C° 0.4 mm 9 m/s 744 mmHg 92%
15:00 +3°C° 0.1 mm 9 m/s 744 mmHg 87%
16:00 +3°C° 0.1 mm 9 m/s 745 mmHg 83%
17:00 +3°C° 0.1 mm 9 m/s 746 mmHg 78%
18:00 +3°C° 0 mm 7 m/s 747 mmHg 80%
19:00 +3°C° 0 mm 5 m/s 747 mmHg 82%
20:00 +3°C° 0 mm 4 m/s 748 mmHg 85%
21:00 +3°C° 0.1 mm 4 m/s 748 mmHg 84%
22:00 +3°C° 0.1 mm 4 m/s 749 mmHg 84%
23:00 +3°C° 0.1 mm 4 m/s 749 mmHg 83%
Arată mai mult

Formular de consimțământ

Meteoprog și furnizorii noștri de servicii pot stoca și accesa date personale, precum cookies, identificatori de dispozitiv sau alte tehnologii similare pe dispozitivul dumneavoastră și procesa astfel de date pentru a personaliza conținutul și reclamele, dar și pentru a oferi caracteristici de social media și pentru a analiza traficul.

  • Stocarea și/sau accesarea informațiilor pe dispozitivul dumneavoastră

    Cookies, identificatori de dispozitiv sau alte informații pot fi stocate sau accesate pe dispozitiv în scopurile indicate mai sus.

  • Reclame și conținut personalizat, evaluarea reclamelor și a conținutului, informații despre audiențe și dezvoltarea produselor

    Reclamele și conținutul pot fi personalizate pe baza unui profil. Pot fi adăugate date suplimentare pentru a personaliza mai bine reclamele și conținutul. Performanța reclamelor și conținutului poate fi măsurată. Pot fi obținute informații despre utilizatorii care au văzut reclamele și conținutul. Aceste date pot fi utilizate pentru a dezvolta sau îmbunătăți experiența utilizatorilor, sistemele și software-ul.

Dând clic pe ‘Sunt de acord’, permiteți utilizarea cookie-urilor menționate, a identificatorilor de dispozitiv, balizelor web sau altor tehnologii similare. Setările pot fi modificate din browser-ul dispozitivului dumneavoastră.

În anumite scopuri, interesele legitime pot prima asupra consimțământului. Puteți citi mai multe informații în acest sens în Politica privind Confidențialitatea Datelor și Cookie.